Year,Month,Day,Hour,Minute,Value (Times are PST for temperature in C)
2018,04,26,00,00,8.20
2018,04,26,00,01,8.20
2018,04,26,00,02,8.20
2018,04,26,00,03,8.10
2018,04,26,00,04,8.10
2018,04,26,00,05,8.10
2018,04,26,00,06,8.10
2018,04,26,00,07,8.10
2018,04,26,00,08,8.10
2018,04,26,00,09,8.00
2018,04,26,00,10,8.00
2018,04,26,00,11,8.00
2018,04,26,00,12,8.00
2018,04,26,00,13,7.90
2018,04,26,00,14,7.90
2018,04,26,00,15,7.90
2018,04,26,00,16,7.90
2018,04,26,00,17,7.90
2018,04,26,00,18,7.80
2018,04,26,00,19,7.80
2018,04,26,00,20,7.80
2018,04,26,00,21,7.80
2018,04,26,00,22,7.80
2018,04,26,00,23,7.80
2018,04,26,00,24,7.80
2018,04,26,00,25,7.80
2018,04,26,00,26,7.80
2018,04,26,00,27,7.80
2018,04,26,00,28,7.80
2018,04,26,00,29,7.70
2018,04,26,00,30,7.70
2018,04,26,00,31,7.70
2018,04,26,00,32,7.70
2018,04,26,00,33,7.70
2018,04,26,00,34,7.70
2018,04,26,00,35,7.70
2018,04,26,00,36,7.60
2018,04,26,00,37,7.60
2018,04,26,00,38,7.60
2018,04,26,00,39,7.60
2018,04,26,00,40,7.50
2018,04,26,00,41,7.50
2018,04,26,00,42,7.50
2018,04,26,00,43,7.50
2018,04,26,00,44,7.50
2018,04,26,00,45,7.40
2018,04,26,00,46,7.40
2018,04,26,00,47,7.40
2018,04,26,00,48,7.40
2018,04,26,00,49,7.40
2018,04,26,00,50,7.40
2018,04,26,00,51,7.40
2018,04,26,00,52,7.40
2018,04,26,00,53,7.40
2018,04,26,00,54,7.40
2018,04,26,00,55,7.40
2018,04,26,00,56,7.40
2018,04,26,00,57,7.40
2018,04,26,00,58,7.40
2018,04,26,00,59,7.40
2018,04,26,01,00,7.40
2018,04,26,01,01,7.40
2018,04,26,01,02,7.40
2018,04,26,01,03,7.40
2018,04,26,01,04,7.40
2018,04,26,01,05,7.40
2018,04,26,01,06,7.40
2018,04,26,01,07,7.40
2018,04,26,01,08,7.40
2018,04,26,01,09,7.40
2018,04,26,01,10,7.40
2018,04,26,01,11,7.40
2018,04,26,01,12,7.40
2018,04,26,01,13,7.50
2018,04,26,01,14,7.50
2018,04,26,01,15,7.50
2018,04,26,01,16,7.60
2018,04,26,01,17,7.60
2018,04,26,01,18,7.60
2018,04,26,01,19,7.60
2018,04,26,01,20,7.60
2018,04,26,01,21,7.70
2018,04,26,01,22,7.70
2018,04,26,01,23,7.70
2018,04,26,01,24,7.70
2018,04,26,01,25,7.80
2018,04,26,01,26,7.80
2018,04,26,01,27,7.80
2018,04,26,01,28,7.80
2018,04,26,01,29,7.80
2018,04,26,01,30,7.80
2018,04,26,01,31,7.80
2018,04,26,01,32,7.90
2018,04,26,01,33,7.90
2018,04,26,01,34,7.90
2018,04,26,01,35,7.90
2018,04,26,01,36,7.90
2018,04,26,01,37,7.90
2018,04,26,01,38,7.90
2018,04,26,01,39,7.90
2018,04,26,01,40,7.90
2018,04,26,01,41,7.90
2018,04,26,01,42,7.90
2018,04,26,01,43,7.90
2018,04,26,01,44,7.90
2018,04,26,01,45,7.90
2018,04,26,01,46,7.90
2018,04,26,01,47,7.90
2018,04,26,01,48,8.00
2018,04,26,01,49,8.00
2018,04,26,01,50,8.00
2018,04,26,01,51,8.00
2018,04,26,01,52,8.10
2018,04,26,01,53,8.20
2018,04,26,01,54,8.30
2018,04,26,01,55,8.30
2018,04,26,01,56,8.40
2018,04,26,01,57,8.40
2018,04,26,01,58,8.50
2018,04,26,01,59,8.60
2018,04,26,02,00,8.60
2018,04,26,02,01,8.70
2018,04,26,02,02,8.70
2018,04,26,02,03,8.80
2018,04,26,02,04,8.80
2018,04,26,02,05,8.90
2018,04,26,02,06,9.00
2018,04,26,02,07,9.00
2018,04,26,02,08,9.00
2018,04,26,02,09,9.10
2018,04,26,02,10,9.10
2018,04,26,02,11,9.10
2018,04,26,02,12,9.20
2018,04,26,02,13,9.20
2018,04,26,02,14,9.20
2018,04,26,02,15,9.20
2018,04,26,02,16,9.20
2018,04,26,02,17,9.20
2018,04,26,02,18,9.30
2018,04,26,02,19,9.30
2018,04,26,02,20,9.30
2018,04,26,02,21,9.30
2018,04,26,02,22,9.30
2018,04,26,02,23,9.40
2018,04,26,02,24,9.50
2018,04,26,02,25,9.60
2018,04,26,02,26,9.60
2018,04,26,02,27,9.70
2018,04,26,02,28,9.70
2018,04,26,02,29,9.70
2018,04,26,02,30,9.70
2018,04,26,02,31,9.70
2018,04,26,02,32,9.60
2018,04,26,02,33,9.40
2018,04,26,02,34,9.30
2018,04,26,02,35,9.20
2018,04,26,02,36,9.10
2018,04,26,02,37,9.10
2018,04,26,02,38,9.10
2018,04,26,02,39,9.00
2018,04,26,02,40,9.00
2018,04,26,02,41,8.90
2018,04,26,02,42,8.80
2018,04,26,02,43,8.80
2018,04,26,02,44,8.70
2018,04,26,02,45,8.70
2018,04,26,02,46,8.70
2018,04,26,02,47,8.70
2018,04,26,02,48,8.60
2018,04,26,02,49,8.60
2018,04,26,02,50,8.60
2018,04,26,02,51,8.60
2018,04,26,02,52,8.50
2018,04,26,02,53,8.50
2018,04,26,02,54,8.50
2018,04,26,02,55,8.40
2018,04,26,02,56,8.40
2018,04,26,02,57,8.40
2018,04,26,02,58,8.40
2018,04,26,02,59,8.40
2018,04,26,03,00,8.40
2018,04,26,03,01,8.30
2018,04,26,03,02,8.30
2018,04,26,03,03,8.30
2018,04,26,03,04,8.30
2018,04,26,03,05,8.20
2018,04,26,03,06,8.20
2018,04,26,03,07,8.20
2018,04,26,03,08,8.20
2018,04,26,03,09,8.20
2018,04,26,03,10,8.20
2018,04,26,03,11,8.20
2018,04,26,03,12,8.10
2018,04,26,03,13,8.10
2018,04,26,03,14,8.10
2018,04,26,03,15,8.00
2018,04,26,03,16,8.00
2018,04,26,03,17,8.00
2018,04,26,03,18,7.90
2018,04,26,03,19,7.90
2018,04,26,03,20,7.90
2018,04,26,03,21,7.90
2018,04,26,03,22,7.80
2018,04,26,03,23,7.80
2018,04,26,03,24,7.80
2018,04,26,03,25,7.80
2018,04,26,03,26,7.80
2018,04,26,03,27,7.70
2018,04,26,03,28,7.70
2018,04,26,03,29,7.60
2018,04,26,03,30,7.60
2018,04,26,03,31,7.50
2018,04,26,03,32,7.40
2018,04,26,03,33,7.40
2018,04,26,03,34,7.40
2018,04,26,03,35,7.40
2018,04,26,03,36,7.30
2018,04,26,03,37,7.30
2018,04,26,03,38,7.30
2018,04,26,03,39,7.30
2018,04,26,03,40,7.30
2018,04,26,03,41,7.20
2018,04,26,03,42,7.20
2018,04,26,03,43,7.20
2018,04,26,03,44,7.20
2018,04,26,03,45,7.20
2018,04,26,03,46,7.20
2018,04,26,03,47,7.10
2018,04,26,03,48,7.10
2018,04,26,03,49,7.10
2018,04,26,03,50,7.10
2018,04,26,03,51,7.00
2018,04,26,03,52,7.00
2018,04,26,03,53,7.00
2018,04,26,03,54,6.90
2018,04,26,03,55,6.90
2018,04,26,03,56,6.90
2018,04,26,03,57,6.90
2018,04,26,03,58,6.90
2018,04,26,03,59,6.90
2018,04,26,04,00,6.90
2018,04,26,04,01,6.80
2018,04,26,04,02,6.80
2018,04,26,04,03,6.80
2018,04,26,04,04,6.80
2018,04,26,04,05,6.80
2018,04,26,04,06,6.70
2018,04,26,04,07,6.70
2018,04,26,04,08,6.70
2018,04,26,04,09,6.70
2018,04,26,04,10,6.70
2018,04,26,04,11,6.60
2018,04,26,04,12,6.60
2018,04,26,04,13,6.60
2018,04,26,04,14,6.60
2018,04,26,04,15,6.60
2018,04,26,04,16,6.60
2018,04,26,04,17,6.50
2018,04,26,04,18,6.50
2018,04,26,04,19,6.50
2018,04,26,04,20,6.50
2018,04,26,04,21,6.40
2018,04,26,04,22,6.40
2018,04,26,04,23,6.40
2018,04,26,04,24,6.40
2018,04,26,04,25,6.40
2018,04,26,04,26,6.40
2018,04,26,04,27,6.30
2018,04,26,04,28,6.30
2018,04,26,04,29,6.30
2018,04,26,04,30,6.30
2018,04,26,04,31,6.30
2018,04,26,04,32,6.30
2018,04,26,04,33,6.30
2018,04,26,04,34,6.30
2018,04,26,04,35,6.30
2018,04,26,04,36,6.30
2018,04,26,04,37,6.30
2018,04,26,04,38,6.30
2018,04,26,04,39,6.30
2018,04,26,04,40,6.30
2018,04,26,04,41,6.30
2018,04,26,04,42,6.30
2018,04,26,04,43,6.20
2018,04,26,04,44,6.20
2018,04,26,04,45,6.20
2018,04,26,04,46,6.20
2018,04,26,04,47,6.20
2018,04,26,04,48,6.20
2018,04,26,04,49,6.20
2018,04,26,04,50,6.20
2018,04,26,04,51,6.20
2018,04,26,04,52,6.20
2018,04,26,04,53,6.20
2018,04,26,04,54,6.20
2018,04,26,04,55,6.20
2018,04,26,04,56,6.20
2018,04,26,04,57,6.20
2018,04,26,04,58,6.20
2018,04,26,04,59,6.20
2018,04,26,05,00,6.20
2018,04,26,05,01,6.20
2018,04,26,05,02,6.20
2018,04,26,05,03,6.20
2018,04,26,05,04,6.30
2018,04,26,05,05,6.30
2018,04,26,05,06,6.30
2018,04,26,05,07,6.30
2018,04,26,05,08,6.30
2018,04,26,05,09,6.30
2018,04,26,05,10,6.30
2018,04,26,05,11,6.30
2018,04,26,05,12,6.30
2018,04,26,05,13,6.30
2018,04,26,05,14,6.30
2018,04,26,05,15,6.40
2018,04,26,05,16,6.40
2018,04,26,05,17,6.40
2018,04,26,05,18,6.40
2018,04,26,05,19,6.40
2018,04,26,05,20,6.40
2018,04,26,05,21,6.40
2018,04,26,05,22,6.40
2018,04,26,05,23,6.40
2018,04,26,05,24,6.40
2018,04,26,05,25,6.40
2018,04,26,05,26,6.40
2018,04,26,05,27,6.40
2018,04,26,05,28,6.40
2018,04,26,05,29,6.30
2018,04,26,05,30,6.30
2018,04,26,05,31,6.30
2018,04,26,05,32,6.30
2018,04,26,05,33,6.30
2018,04,26,05,34,6.30
2018,04,26,05,35,6.30
2018,04,26,05,36,6.30
2018,04,26,05,37,6.30
2018,04,26,05,38,6.30
2018,04,26,05,39,6.30
2018,04,26,05,40,6.30
2018,04,26,05,41,6.30
2018,04,26,05,42,6.30
2018,04,26,05,43,6.30
2018,04,26,05,44,6.30
2018,04,26,05,45,6.30
2018,04,26,05,46,6.30
2018,04,26,05,47,6.30
2018,04,26,05,48,6.30
2018,04,26,05,49,6.30
2018,04,26,05,50,6.30
2018,04,26,05,51,6.20
2018,04,26,05,52,6.20
2018,04,26,05,53,6.20
2018,04,26,05,54,6.20
2018,04,26,05,55,6.20
2018,04,26,05,56,6.20
2018,04,26,05,57,6.20
2018,04,26,05,58,6.20
2018,04,26,05,59,6.20
2018,04,26,06,00,6.20
2018,04,26,06,01,6.20
2018,04,26,06,02,6.20
2018,04,26,06,03,6.30
2018,04,26,06,04,6.30
2018,04,26,06,05,6.30
2018,04,26,06,06,6.30
2018,04,26,06,07,6.30
2018,04,26,06,08,6.40
2018,04,26,06,09,6.40
2018,04,26,06,10,6.40
2018,04,26,06,11,6.40
2018,04,26,06,12,6.40
2018,04,26,06,13,6.40
2018,04,26,06,14,6.40
2018,04,26,06,15,6.40
2018,04,26,06,16,6.40
2018,04,26,06,17,6.40
2018,04,26,06,18,6.40
2018,04,26,06,19,6.40
2018,04,26,06,20,6.40
2018,04,26,06,21,6.40
2018,04,26,06,22,6.40
2018,04,26,06,23,6.40
2018,04,26,06,24,6.40
2018,04,26,06,25,6.40
2018,04,26,06,26,6.40
2018,04,26,06,27,6.40
2018,04,26,06,28,6.40
2018,04,26,06,29,6.40
2018,04,26,06,30,6.40
2018,04,26,06,31,6.40
2018,04,26,06,32,6.40
2018,04,26,06,33,6.40
2018,04,26,06,34,6.40
2018,04,26,06,35,6.40
2018,04,26,06,36,6.40
2018,04,26,06,37,6.40
2018,04,26,06,38,6.40
2018,04,26,06,39,6.40
2018,04,26,06,40,6.50
2018,04,26,06,41,6.50
2018,04,26,06,42,6.60
2018,04,26,06,43,6.70
2018,04,26,06,44,6.80
2018,04,26,06,45,6.80
2018,04,26,06,46,6.80
2018,04,26,06,47,6.90
2018,04,26,06,48,6.90
2018,04,26,06,49,6.90
2018,04,26,06,50,6.90
2018,04,26,06,51,6.90
2018,04,26,06,52,6.90
2018,04,26,06,53,6.90
2018,04,26,06,54,6.90
2018,04,26,06,55,7.00
2018,04,26,06,56,7.00
2018,04,26,06,57,7.10
2018,04,26,06,58,7.20
2018,04,26,06,59,7.30
2018,04,26,07,00,7.40
2018,04,26,07,01,7.50
2018,04,26,07,02,7.60
2018,04,26,07,03,7.70
2018,04,26,07,04,7.80
2018,04,26,07,05,7.90
2018,04,26,07,06,7.90
2018,04,26,07,07,8.00
2018,04,26,07,08,8.10
2018,04,26,07,09,8.20
2018,04,26,07,10,8.20
2018,04,26,07,11,8.30
2018,04,26,07,12,8.40
2018,04,26,07,13,8.40
2018,04,26,07,14,8.50
2018,04,26,07,15,8.60
2018,04,26,07,16,8.60
2018,04,26,07,17,8.70
2018,04,26,07,18,8.80
2018,04,26,07,19,8.90
2018,04,26,07,20,9.00
2018,04,26,07,21,9.10
2018,04,26,07,22,9.20
2018,04,26,07,23,9.30
2018,04,26,07,24,9.40
2018,04,26,07,25,9.50
2018,04,26,07,26,9.60
2018,04,26,07,27,9.70
2018,04,26,07,28,9.80
2018,04,26,07,29,9.90
2018,04,26,07,30,9.90
2018,04,26,07,31,10.00
2018,04,26,07,32,10.10
2018,04,26,07,33,10.20
2018,04,26,07,34,10.30
2018,04,26,07,35,10.40
2018,04,26,07,36,10.50
2018,04,26,07,37,10.60
2018,04,26,07,38,10.60
2018,04,26,07,39,10.70
2018,04,26,07,40,10.80
2018,04,26,07,41,10.90
2018,04,26,07,42,11.00
2018,04,26,07,43,11.10
2018,04,26,07,44,11.10
2018,04,26,07,45,11.20
2018,04,26,07,46,11.30
2018,04,26,07,47,11.40
2018,04,26,07,48,11.50
2018,04,26,07,49,11.60
2018,04,26,07,50,11.70
2018,04,26,07,51,11.80
2018,04,26,07,52,11.90
2018,04,26,07,53,12.00
2018,04,26,07,54,12.10
2018,04,26,07,55,12.10
2018,04,26,07,56,12.20
2018,04,26,07,57,12.20
2018,04,26,07,58,12.30
2018,04,26,07,59,12.40
2018,04,26,08,00,12.50
2018,04,26,08,01,12.60
2018,04,26,08,02,12.70
2018,04,26,08,03,12.80
2018,04,26,08,04,12.90
2018,04,26,08,05,13.00
2018,04,26,08,06,13.10
2018,04,26,08,07,13.20
2018,04,26,08,08,13.30
2018,04,26,08,09,13.40
2018,04,26,08,10,13.50
2018,04,26,08,11,13.60
2018,04,26,08,12,13.60
2018,04,26,08,13,13.80
2018,04,26,08,14,13.90
2018,04,26,08,15,14.00
2018,04,26,08,16,14.10
2018,04,26,08,17,14.20
2018,04,26,08,18,14.30
2018,04,26,08,19,14.40
2018,04,26,08,20,14.50
2018,04,26,08,21,14.60
2018,04,26,08,22,14.70
2018,04,26,08,23,14.80
2018,04,26,08,24,14.90
2018,04,26,08,25,15.10
2018,04,26,08,26,15.20
2018,04,26,08,27,15.30
2018,04,26,08,28,15.30
2018,04,26,08,29,15.40
2018,04,26,08,30,15.50
2018,04,26,08,31,15.70
2018,04,26,08,32,15.80
2018,04,26,08,33,15.80
2018,04,26,08,34,15.90
2018,04,26,08,35,16.00
2018,04,26,08,36,16.10
2018,04,26,08,37,16.20
2018,04,26,08,38,16.20
2018,04,26,08,39,16.30
2018,04,26,08,40,16.30
2018,04,26,08,41,16.40
2018,04,26,08,42,16.50
2018,04,26,08,43,16.60
2018,04,26,08,44,16.70
2018,04,26,08,45,16.70
2018,04,26,08,46,16.80
2018,04,26,08,47,16.80
2018,04,26,08,48,16.90
2018,04,26,08,49,16.90
2018,04,26,08,50,17.00
2018,04,26,08,51,17.10
2018,04,26,08,52,17.20
2018,04,26,08,53,17.20
2018,04,26,08,54,17.30
2018,04,26,08,55,17.30
2018,04,26,08,56,17.30
2018,04,26,08,57,17.40
2018,04,26,08,58,17.40
2018,04,26,08,59,17.40
2018,04,26,09,00,17.50
2018,04,26,09,01,17.50
2018,04,26,09,02,17.50
2018,04,26,09,03,17.60
2018,04,26,09,04,17.70
2018,04,26,09,05,17.70
2018,04,26,09,06,17.80
2018,04,26,09,07,17.90
2018,04,26,09,08,17.90
2018,04,26,09,09,18.00
2018,04,26,09,10,18.10
2018,04,26,09,11,18.10
2018,04,26,09,12,18.20
2018,04,26,09,13,18.20
2018,04,26,09,14,18.30
2018,04,26,09,15,18.30
2018,04,26,09,16,18.30
2018,04,26,09,17,18.30
2018,04,26,09,18,18.30
2018,04,26,09,19,18.30
2018,04,26,09,20,18.30
2018,04,26,09,21,18.30
2018,04,26,09,22,18.30
2018,04,26,09,23,18.30
2018,04,26,09,24,18.30
2018,04,26,09,25,18.30
2018,04,26,09,26,18.30
2018,04,26,09,27,18.30
2018,04,26,09,28,18.30
2018,04,26,09,29,18.30
2018,04,26,09,30,18.30
2018,04,26,09,31,18.40
2018,04,26,09,32,18.50
2018,04,26,09,33,18.50
2018,04,26,09,34,18.60
2018,04,26,09,35,18.60
2018,04,26,09,36,18.70
2018,04,26,09,37,18.70
2018,04,26,09,38,18.80
2018,04,26,09,39,18.80
2018,04,26,09,40,18.70
2018,04,26,09,41,18.70
2018,04,26,09,42,18.60
2018,04,26,09,43,18.60
2018,04,26,09,44,18.60
2018,04,26,09,45,18.60
2018,04,26,09,46,18.60
2018,04,26,09,47,18.70
2018,04,26,09,48,18.80
2018,04,26,09,49,18.80
2018,04,26,09,50,18.90
2018,04,26,09,51,18.90
2018,04,26,09,52,19.00
2018,04,26,09,53,19.10
2018,04,26,09,54,19.10
2018,04,26,09,55,19.10
2018,04,26,09,56,19.10
2018,04,26,09,57,19.10
2018,04,26,09,58,19.10
2018,04,26,09,59,19.10
2018,04,26,10,00,19.20
2018,04,26,10,01,19.20
2018,04,26,10,02,19.30
2018,04,26,10,03,19.30
2018,04,26,10,04,19.40
2018,04,26,10,05,19.40
2018,04,26,10,06,19.50
2018,04,26,10,07,19.40
2018,04,26,10,08,19.50
2018,04,26,10,09,19.50
2018,04,26,10,10,19.50
2018,04,26,10,11,19.40
2018,04,26,10,12,19.40
2018,04,26,10,13,19.40
2018,04,26,10,14,19.40
2018,04,26,10,15,19.50
2018,04,26,10,16,19.60
2018,04,26,10,17,19.60
2018,04,26,10,18,19.70
2018,04,26,10,19,19.80
2018,04,26,10,20,19.80
2018,04,26,10,21,19.80
2018,04,26,10,22,19.80
2018,04,26,10,23,19.80
2018,04,26,10,24,19.80
2018,04,26,10,25,19.80
2018,04,26,10,26,19.80
2018,04,26,10,27,19.80
2018,04,26,10,28,19.90
2018,04,26,10,29,19.90
2018,04,26,10,30,19.90
2018,04,26,10,31,19.80
2018,04,26,10,32,19.90
2018,04,26,10,33,19.90
2018,04,26,10,34,20.00
2018,04,26,10,35,20.00
2018,04,26,10,36,20.10
2018,04,26,10,37,20.20
2018,04,26,10,38,20.30
2018,04,26,10,39,20.40
2018,04,26,10,40,20.50
2018,04,26,10,41,20.50
2018,04,26,10,42,20.60
2018,04,26,10,43,20.70
2018,04,26,10,44,20.70
2018,04,26,10,45,20.80
2018,04,26,10,46,20.80
2018,04,26,10,47,20.90
2018,04,26,10,48,20.90
2018,04,26,10,49,20.80
2018,04,26,10,50,20.80
2018,04,26,10,51,20.80
2018,04,26,10,52,20.90
2018,04,26,10,53,20.80
2018,04,26,10,54,20.80
2018,04,26,10,55,20.80
2018,04,26,10,56,20.90
2018,04,26,10,57,20.90
2018,04,26,10,58,20.90
2018,04,26,10,59,20.80
2018,04,26,11,00,20.80
2018,04,26,11,01,20.70
2018,04,26,11,02,20.80
2018,04,26,11,03,20.80
2018,04,26,11,04,20.90
2018,04,26,11,05,21.00
2018,04,26,11,06,21.00
2018,04,26,11,07,21.10
2018,04,26,11,08,21.20
2018,04,26,11,09,21.30
2018,04,26,11,10,21.40
2018,04,26,11,11,21.50
2018,04,26,11,12,21.50
2018,04,26,11,13,21.60
2018,04,26,11,14,21.60
2018,04,26,11,15,21.70
2018,04,26,11,16,21.70
2018,04,26,11,17,21.70
2018,04,26,11,18,21.80
2018,04,26,11,19,21.80
2018,04,26,11,20,21.90
2018,04,26,11,21,22.00
2018,04,26,11,22,22.10
2018,04,26,11,23,22.10
2018,04,26,11,24,22.20
2018,04,26,11,25,22.20
2018,04,26,11,26,22.30
2018,04,26,11,27,22.30
2018,04,26,11,28,22.30
2018,04,26,11,29,22.40
2018,04,26,11,30,22.40
2018,04,26,11,31,22.40
2018,04,26,11,32,22.40
2018,04,26,11,33,22.40
2018,04,26,11,34,22.40
2018,04,26,11,35,22.50
2018,04,26,11,36,22.60
2018,04,26,11,37,22.70
2018,04,26,11,38,22.80
2018,04,26,11,39,22.90
2018,04,26,11,40,22.90
2018,04,26,11,41,22.90
2018,04,26,11,42,23.00
2018,04,26,11,43,22.90
2018,04,26,11,44,22.90
2018,04,26,11,45,22.90
2018,04,26,11,46,23.00
2018,04,26,11,47,22.90
2018,04,26,11,48,22.90
2018,04,26,11,49,22.90
2018,04,26,11,50,23.00
2018,04,26,11,51,23.00
2018,04,26,11,52,23.00
2018,04,26,11,53,23.00
2018,04,26,11,54,23.00
2018,04,26,11,55,23.00
2018,04,26,11,56,23.10
2018,04,26,11,57,23.10
2018,04,26,11,58,23.10
2018,04,26,11,59,23.10
2018,04,26,12,00,23.20
2018,04,26,12,01,23.20
2018,04,26,12,02,23.20
2018,04,26,12,03,23.20
2018,04,26,12,04,23.30
2018,04,26,12,05,23.30
2018,04,26,12,06,23.30
2018,04,26,12,07,23.30
2018,04,26,12,08,23.40
2018,04,26,12,09,23.50
2018,04,26,12,10,23.60
2018,04,26,12,11,23.60
2018,04,26,12,12,23.50
2018,04,26,12,13,23.40
2018,04,26,12,14,23.30
2018,04,26,12,15,23.20
2018,04,26,12,16,23.10
2018,04,26,12,17,23.10
2018,04,26,12,18,23.00
2018,04,26,12,19,23.00
2018,04,26,12,20,22.90
2018,04,26,12,21,22.90
2018,04,26,12,22,22.80
2018,04,26,12,23,22.70
2018,04,26,12,24,22.60
2018,04,26,12,25,22.60
2018,04,26,12,26,22.60
2018,04,26,12,27,22.60
2018,04,26,12,28,22.60
2018,04,26,12,29,22.70
2018,04,26,12,30,22.80
2018,04,26,12,31,22.80
2018,04,26,12,32,22.80
2018,04,26,12,33,22.80
2018,04,26,12,34,22.80
2018,04,26,12,35,22.90
2018,04,26,12,36,22.90
2018,04,26,12,37,23.00
2018,04,26,12,38,23.10
2018,04,26,12,39,23.10
2018,04,26,12,40,23.20
2018,04,26,12,41,23.20
2018,04,26,12,42,23.30
2018,04,26,12,43,23.20
2018,04,26,12,44,23.20
2018,04,26,12,45,23.20
2018,04,26,12,46,23.20
2018,04,26,12,47,23.20
2018,04,26,12,48,23.20
2018,04,26,12,49,23.30
2018,04,26,12,50,23.30
2018,04,26,12,51,23.20
2018,04,26,12,52,23.10
2018,04,26,12,53,23.10
2018,04,26,12,54,23.20
2018,04,26,12,55,23.20
2018,04,26,12,56,23.20
2018,04,26,12,57,23.30
2018,04,26,12,58,23.30
2018,04,26,12,59,23.20
2018,04,26,13,00,23.20
2018,04,26,13,01,23.20
2018,04,26,13,02,23.10
2018,04,26,13,03,23.10
2018,04,26,13,04,23.10
2018,04,26,13,05,23.00
2018,04,26,13,06,23.00
2018,04,26,13,07,23.00
2018,04,26,13,08,22.90
2018,04,26,13,09,22.90
2018,04,26,13,10,22.80
2018,04,26,13,11,22.80
2018,04,26,13,12,22.80
2018,04,26,13,13,22.80
2018,04,26,13,14,22.80
2018,04,26,13,15,22.90
2018,04,26,13,16,23.00
2018,04,26,13,17,23.00
2018,04,26,13,18,23.10
2018,04,26,13,19,23.10
2018,04,26,13,20,23.10
2018,04,26,13,21,23.10
2018,04,26,13,22,23.10
2018,04,26,13,23,23.00
2018,04,26,13,24,23.00
2018,04,26,13,25,23.00
2018,04,26,13,26,23.00
2018,04,26,13,27,23.00
2018,04,26,13,28,23.10
2018,04,26,13,29,23.10
2018,04,26,13,30,23.10
2018,04,26,13,31,23.10
2018,04,26,13,32,23.20
2018,04,26,13,33,23.30
2018,04,26,13,34,23.30
2018,04,26,13,35,23.40
2018,04,26,13,36,23.40
2018,04,26,13,37,23.50
2018,04,26,13,38,23.60
2018,04,26,13,39,23.60
2018,04,26,13,40,23.60
2018,04,26,13,41,23.60
2018,04,26,13,42,23.60
2018,04,26,13,43,23.50
2018,04,26,13,44,23.50
2018,04,26,13,45,23.50
2018,04,26,13,46,23.50
2018,04,26,13,47,23.50
2018,04,26,13,48,23.50
2018,04,26,13,49,23.40
2018,04,26,13,50,23.40
2018,04,26,13,51,23.30
2018,04,26,13,52,23.30
2018,04,26,13,53,23.20
2018,04,26,13,54,23.20
2018,04,26,13,55,23.20
2018,04,26,13,56,23.20
2018,04,26,13,57,23.10
2018,04,26,13,58,23.10
2018,04,26,13,59,23.00
2018,04,26,14,00,23.10
2018,04,26,14,01,23.10
2018,04,26,14,02,23.20
2018,04,26,14,03,23.20
2018,04,26,14,04,23.20
2018,04,26,14,05,23.30
2018,04,26,14,06,23.30
2018,04,26,14,07,23.40
2018,04,26,14,08,23.40
2018,04,26,14,09,23.50
2018,04,26,14,10,23.50
2018,04,26,14,11,23.50
2018,04,26,14,12,23.50
2018,04,26,14,13,23.50
2018,04,26,14,14,23.60
2018,04,26,14,15,23.70
2018,04,26,14,16,23.70
2018,04,26,14,17,23.70
2018,04,26,14,18,23.80
2018,04,26,14,19,23.80
2018,04,26,14,20,23.80
2018,04,26,14,21,23.80
2018,04,26,14,22,23.80
2018,04,26,14,23,23.80
2018,04,26,14,24,23.80
2018,04,26,14,25,23.80
2018,04,26,14,26,23.80
2018,04,26,14,27,23.90
2018,04,26,14,28,23.90
2018,04,26,14,29,23.80
2018,04,26,14,30,23.80
2018,04,26,14,31,23.80
2018,04,26,14,32,23.70
2018,04,26,14,33,23.70
2018,04,26,14,34,23.80
2018,04,26,14,35,23.80
2018,04,26,14,36,23.80
2018,04,26,14,37,23.90
2018,04,26,14,38,23.90
2018,04,26,14,39,24.00
2018,04,26,14,40,24.00
2018,04,26,14,41,24.10
2018,04,26,14,42,24.10
2018,04,26,14,43,24.20
2018,04,26,14,44,24.20
2018,04,26,14,45,24.20
2018,04,26,14,46,24.20
2018,04,26,14,47,24.30
2018,04,26,14,48,24.30
2018,04,26,14,49,24.40
2018,04,26,14,50,24.50
2018,04,26,14,51,24.50
2018,04,26,14,52,24.60
2018,04,26,14,53,24.60
2018,04,26,14,54,24.50
2018,04,26,14,55,24.50
2018,04,26,14,56,24.60
2018,04,26,14,57,24.50
2018,04,26,14,58,24.50
2018,04,26,14,59,24.40
2018,04,26,15,00,24.30
2018,04,26,15,01,24.20
2018,04,26,15,02,24.20
2018,04,26,15,03,24.30
2018,04,26,15,04,24.30
2018,04,26,15,05,24.40
2018,04,26,15,06,24.40
2018,04,26,15,07,24.40
2018,04,26,15,08,24.50
2018,04,26,15,09,24.50
2018,04,26,15,10,24.50
2018,04,26,15,11,24.50
2018,04,26,15,12,24.50
2018,04,26,15,13,24.60
2018,04,26,15,14,24.60
2018,04,26,15,15,24.70
2018,04,26,15,16,24.70
2018,04,26,15,17,24.70
2018,04,26,15,18,24.70
2018,04,26,15,19,24.70
2018,04,26,15,20,24.70
2018,04,26,15,21,24.70
2018,04,26,15,22,24.70
2018,04,26,15,23,24.70
2018,04,26,15,24,24.70
2018,04,26,15,25,24.70
2018,04,26,15,26,24.70
2018,04,26,15,27,24.60
2018,04,26,15,28,24.50
2018,04,26,15,29,24.50
2018,04,26,15,30,24.50
2018,04,26,15,31,24.50
2018,04,26,15,32,24.50
2018,04,26,15,33,24.50
2018,04,26,15,34,24.50
2018,04,26,15,35,24.50
2018,04,26,15,36,24.50
2018,04,26,15,37,24.50
2018,04,26,15,38,24.50
2018,04,26,15,39,24.40
2018,04,26,15,40,24.40
2018,04,26,15,41,24.40
2018,04,26,15,42,24.40
2018,04,26,15,43,24.40
2018,04,26,15,44,24.40
2018,04,26,15,45,24.40
2018,04,26,15,46,24.40
2018,04,26,15,47,24.40
2018,04,26,15,48,24.50
2018,04,26,15,49,24.50
2018,04,26,15,50,24.60
2018,04,26,15,51,24.60
2018,04,26,15,52,24.70
2018,04,26,15,53,24.70
2018,04,26,15,54,24.70
2018,04,26,15,55,24.70
2018,04,26,15,56,24.80
2018,04,26,15,57,24.80
2018,04,26,15,58,24.80
2018,04,26,15,59,24.80
2018,04,26,16,00,24.90
2018,04,26,16,01,24.80
2018,04,26,16,02,24.80
2018,04,26,16,03,24.80
2018,04,26,16,04,24.80
2018,04,26,16,05,24.90
2018,04,26,16,06,24.90
2018,04,26,16,07,24.90
2018,04,26,16,08,24.90
2018,04,26,16,09,24.90
2018,04,26,16,10,24.90
2018,04,26,16,11,24.90
2018,04,26,16,12,24.90
2018,04,26,16,13,24.90
2018,04,26,16,14,24.90
2018,04,26,16,15,24.80
2018,04,26,16,16,24.80
2018,04,26,16,17,24.70
2018,04,26,16,18,24.70
2018,04,26,16,19,24.70
2018,04,26,16,20,24.60
2018,04,26,16,21,24.60
2018,04,26,16,22,24.50
2018,04,26,16,23,24.50
2018,04,26,16,24,24.40
2018,04,26,16,25,24.40
2018,04,26,16,26,24.40
2018,04,26,16,27,24.40
2018,04,26,16,28,24.40
2018,04,26,16,29,24.40
2018,04,26,16,30,24.40
2018,04,26,16,31,24.50
2018,04,26,16,32,24.60
2018,04,26,16,33,24.60
2018,04,26,16,34,24.60
2018,04,26,16,35,24.60
2018,04,26,16,36,24.60
2018,04,26,16,37,24.60
2018,04,26,16,38,24.60
2018,04,26,16,39,24.60
2018,04,26,16,40,24.60
2018,04,26,16,41,24.70
2018,04,26,16,42,24.70
2018,04,26,16,43,24.70
2018,04,26,16,44,24.80
2018,04,26,16,45,24.80
2018,04,26,16,46,24.80
2018,04,26,16,47,24.80
2018,04,26,16,48,24.90
2018,04,26,16,49,24.90
2018,04,26,16,50,25.00
2018,04,26,16,51,25.10
2018,04,26,16,52,25.10
2018,04,26,16,53,25.10
2018,04,26,16,54,25.20
2018,04,26,16,55,25.20
2018,04,26,16,56,25.10
2018,04,26,16,57,25.10
2018,04,26,16,58,25.20
2018,04,26,16,59,25.20
2018,04,26,17,00,25.20
2018,04,26,17,01,25.10
2018,04,26,17,02,25.10
2018,04,26,17,03,25.10
2018,04,26,17,04,25.10
2018,04,26,17,05,25.10
2018,04,26,17,06,25.10
2018,04,26,17,07,25.10
2018,04,26,17,08,25.10
2018,04,26,17,09,25.10
2018,04,26,17,10,25.10
2018,04,26,17,11,25.00
2018,04,26,17,12,25.00
2018,04,26,17,13,25.00
2018,04,26,17,14,24.90
2018,04,26,17,15,24.90
2018,04,26,17,16,24.90
2018,04,26,17,17,24.90
2018,04,26,17,18,24.90
2018,04,26,17,19,24.90
2018,04,26,17,20,24.90
2018,04,26,17,21,25.00
2018,04,26,17,22,25.00
2018,04,26,17,23,24.90
2018,04,26,17,24,24.90
2018,04,26,17,25,24.90
2018,04,26,17,26,24.90
2018,04,26,17,27,24.80
2018,04,26,17,28,24.80
2018,04,26,17,29,24.70
2018,04,26,17,30,24.70
2018,04,26,17,31,24.70
2018,04,26,17,32,24.70
2018,04,26,17,33,24.70
2018,04,26,17,34,24.70
2018,04,26,17,35,24.70
2018,04,26,17,36,24.80
2018,04,26,17,37,24.80
2018,04,26,17,38,24.90
2018,04,26,17,39,24.90